Meteo Giornale » Osservazioni meteo Repubblica Ceca » Brno-Turany

ore: 23:30 - Osservazioni Meteo Brno-Turany
Lat. 49° 9' N Lon. 16° 42' E Alt. 241 metri s.l.m.

sereno Europe/Prague

15 °C

Sereno

Temp. 24 Ore

13 °C

23 °C

Est/Nord-Est

13 Km/h

Dew point 11 °C

Umidità 76 %

Visibilità  10 Km

Il sole sorge alle ore 06:42

Il sole tramonta alle ore 18:46

Data e Ora Cielo e Fenomeni T °C DP °C Um. % Pres. hPa Vis. km Vento km/h
Ieri h: 23:30 sereno Sereno 15 11 76 1019 10 E/NE 13
Ieri h: 23:00 sereno Sereno 15 11 76 1019 10 E/NE 13
Ieri h: 22:30 sereno Sereno 16 11 72 1019 10 NE 11.1
Ieri h: 22:00 sereno Sereno 18 11 63 1019 10 NE 11.1
Ieri h: 21:30 sereno Sereno 19 11 59 1018 10 NE 11.1
Ieri h: 21:00 sereno Sereno 19 11 59 1018 10 NE 9.3
Ieri h: 20:30 sereno Sereno 20 11 56 1018 10 N/NE 11.1
Ieri h: 20:00 sereno Sereno 20 11 56 1018 10 NE 7.4
Ieri h: 19:30 sereno Sereno 21 11 52 1018 10 N 1.8
Ieri h: 19:00 sereno Sereno 21 11 52 1018 10 N 5.5
Ieri h: 18:30 sereno Sereno 21 11 52 1018 10 S/SE 7.4
Ieri h: 18:00 sereno Sereno 22 11 49 1017 10 S 11.1
Ieri h: 17:30 sereno Sereno 23 11 46 1017 10 S 13
Ieri h: 17:00 sereno Sereno 23 11 46 1017 10 S 13
Ieri h: 16:30 sereno Sereno 23 11 46 1017 10 S 13
Ieri h: 16:00 sereno Sereno 23 12 49 1018 10 S 11.1
Ieri h: 15:30 sereno Sereno 23 11 46 1018 10 S 11.1
Ieri h: 15:00 sereno Sereno 23 11 46 1018 10 S 9.3
Ieri h: 14:30 poco_nuvoloso Poco Nuvoloso 23 11 46 1018 10 S/SO 11.1
Ieri h: 14:00 nuvoloso Nuvoloso 22 12 53 1018 10 S 13
Ieri h: 13:30 nuvoloso Nuvoloso 22 12 53 1018 10 S/SO 11.1
Ieri h: 13:00 nuvoloso Nuvoloso 22 12 53 1019 10 O 9.3
Ieri h: 12:30 nuvoloso Nuvoloso 21 11 52 1019 10 SO 11.1
Ieri h: 12:00 poco_nuvoloso Poco Nuvoloso 21 12 56 1019 10 N 7.4
Ieri h: 11:30 nuvoloso Nuvoloso 20 12 59 1019 10 S 7.4
Ieri h: 10:30 nuvoloso Nuvoloso 18 11 63 1019 10 S 7.4
Ieri h: 10:00 molto_nuvoloso Molto Nuvoloso 18 11 63 1019 10 S/SO 7.4
Ieri h: 09:30 sereno Sereno 17 11 67 1019 10 N 5.5
Ieri h: 09:00 poco_nuvoloso Poco Nuvoloso 16 11 72 1019 10 S/SO 7.4
Ieri h: 08:00 sereno Sereno 14 11 82 1019 10 N 0
Ieri h: 07:30 sereno Sereno 13 11 87 1018 10 N 1.8
Ieri h: 07:00 sereno Sereno 13 11 87 1018 10 N 5.5
Ieri h: 06:30 sereno Sereno 14 11 82 1018 10 N 1.8
Ieri h: 06:00 sereno Sereno 14 11 82 1018 10 N 1.8
Ieri h: 05:30 sereno Sereno 14 11 82 1018 10 S/SO 7.4
Ieri h: 04:30 sereno Sereno 14 11 82 1018 10 N 3.7
Ieri h: 04:00 sereno Sereno 15 11 76 1017 10 N 5.5
Ieri h: 03:30 sereno Sereno 15 11 76 1017 10 N 1.8
Ieri h: 03:00 coperto Coperto 15 11 76 1018 10 N 5.5
Ieri h: 02:00 coperto Coperto 15 11 76 1018 10 N 5.5
Ieri h: 01:30 sereno Sereno 15 11 76 1018 10 N 5.5
Ieri h: 01:00 coperto Coperto 16 11 72 1018 10 N 1.8